Volver al catálogo

STARLINK-5395

ActivoComunicacionesVLEO
NORAD 54831·PAYLOAD·🇺🇸 United States

Lanzado Dec 28, 2022 desde Cape Canaveral Space Force Station

Loading…

Próximos Pases (próximas 24 horas)

TLE

ActualizadoSource: CelesTrak SupGP

Época: Sep 15, 2026, 02:19 UTC

1 54831C 22177M   26258.09701389  .00036264  00000+0  13138-2 0  2586
2 54831  42.9998 146.3682 0001251 253.0850  10.4080 15.27554280    19

Sigue STARLINK-5395 en tiempo real con AllMySat

Download on the App Store